Weather reports worldwide

Advertisment
Brindisi, Italy (16320): temperature & dewpoint: 17.03.2019 10:00:00 - 23.03.2019 10:00:00 (CET)Brindisi, Italy (16320): wind speed: 17.03.2019 10:00:00 - 23.03.2019 10:00:00 (CET)Brindisi, Italy (16320): wind direction: 17.03.2019 10:00:00 - 23.03.2019 10:00:00 (CET)Brindisi, Italy (16320): reduced air pressure: 17.03.2019 10:00:00 - 23.03.2019 10:00:00 (CET)Brindisi, Italy (16320): visibility: 17.03.2019 10:00:00 - 23.03.2019 10:00:00 (CET)Brindisi, Italy (16320): precipitation: 17.03.2019 10:00:00 - 23.03.2019 10:00:00 (CET)
Date & Time tt [°C] td [°C] ff [km/h] ff [kn] dd ppp [hPa] vv [km] rr [mm]
23.03.2019 10:00:00 14,8 11,0 26 14 NW 1021,9 10 0,0
23.03.2019 09:00:00 14,0 11,0 28 15 NW - 10 -
23.03.2019 08:00:00 13,0 10,0 26 14 NW - 10 -
23.03.2019 07:00:00 11,9 9,2 28 15 NW 1021,7 10 -
23.03.2019 06:00:00 12,0 9,0 24 13 NW - 10 -
23.03.2019 05:00:00 12,0 10,0 22 12 NW - 10 -
23.03.2019 04:00:00 11,6 9,6 22 12 NW 1021,7 10 0,0
23.03.2019 03:00:00 12,0 10,0 24 13 NW - 10 -
23.03.2019 02:00:00 12,0 10,0 28 15 NW - 10 -
23.03.2019 01:00:00 12,2 9,7 29 16 WNW 1022,5 10 -
23.03.2019 00:00:00 13,0 10,0 28 15 NW - 10 -
22.03.2019 23:00:00 13,0 10,0 26 14 NW - 10 -
22.03.2019 22:00:00 13,4 10,4 22 12 NW 1023,4 8 0,0
22.03.2019 21:00:00 14,0 10,0 22 12 NW - 8 -
22.03.2019 20:00:00 14,0 11,0 21 11 NW - 8 -
22.03.2019 19:00:00 13,6 11,0 18 10 NW 1023,7 10 -
22.03.2019 18:00:00 14,0 11,0 21 11 NW - 10 -
22.03.2019 17:00:00 15,0 11,0 22 12 NW - 10 -
22.03.2019 16:00:00 15,1 11,4 28 15 NNW 1023,8 10 0,0
22.03.2019 15:00:00 16,0 12,0 26 14 NNW - 10 -
22.03.2019 14:00:00 17,0 10,0 22 12 NNW - 10 -
22.03.2019 13:00:00 16,5 10,7 18 10 N 1025,3 10 -
22.03.2019 12:00:00 17,0 11,0 21 11 N - 10 -
22.03.2019 11:00:00 16,0 11,0 18 10 N - 10 -
22.03.2019 10:00:00 15,9 10,8 13 7 N 1025,8 10 0,0
22.03.2019 09:00:00 16,0 11,0 13 7 N - 10 -
22.03.2019 08:00:00 13,0 11,0 26 14 WNW - 10 -
22.03.2019 07:00:00 11,9 10,1 24 13 WNW 1025,9 10 -
22.03.2019 06:00:00 12,0 10,0 24 13 WNW - 10 -
22.03.2019 05:00:00 12,0 10,0 18 10 WNW - 10 -
22.03.2019 04:00:00 12,2 10,4 28 15 NW 1024,9 10 0,0
22.03.2019 03:00:00 13,0 11,0 24 13 NW - 10 -
22.03.2019 02:00:00 13,0 11,0 28 15 NW - 10 -
22.03.2019 01:00:00 13,3 11,1 28 15 NW 1025,2 10 -
22.03.2019 00:00:00 13,0 11,0 24 13 NW - 10 -
21.03.2019 23:00:00 14,0 11,0 22 12 NW - 10 -
21.03.2019 22:00:00 13,6 10,6 18 10 NNW 1025,7 10 0,0
21.03.2019 21:00:00 14,0 10,0 22 12 NW - 10 -
21.03.2019 20:00:00 14,0 10,0 24 13 NW - 10 -
21.03.2019 19:00:00 13,8 9,9 24 13 NW 1024,8 10 -
21.03.2019 18:00:00 14,0 11,0 21 11 NW - 10 -
21.03.2019 17:00:00 15,0 11,0 22 12 NW - 10 -
21.03.2019 16:00:00 15,8 10,6 22 12 NW 1023,8 10 0,0
21.03.2019 15:00:00 17,0 11,0 18 10 NNW - 10 -
21.03.2019 14:00:00 16,0 10,0 24 13 NNW - 10 -
21.03.2019 13:00:00 16,4 10,7 21 11 NW 1025,1 10 -
21.03.2019 12:00:00 16,0 10,0 24 13 NW - 10 -
21.03.2019 11:00:00 16,0 10,0 24 13 NNW - 10 -
21.03.2019 10:00:00 15,7 10,3 26 14 NW 1025,3 10 0,0
21.03.2019 09:00:00 15,0 10,0 24 13 NNW - 10 -
21.03.2019 08:00:00 13,0 10,0 29 16 NW - 10 -
21.03.2019 07:00:00 11,3 8,7 29 16 NW 1024,4 10 -
21.03.2019 06:00:00 - - - - - - - -
21.03.2019 05:00:00 - - - - - - - -
21.03.2019 04:00:00 11,4 8,8 29 16 NW 1023,7 - 0,0
21.03.2019 03:00:00 - - - - - - - -
21.03.2019 02:00:00 - - - - - - - -
21.03.2019 01:00:00 13,0 9,0 24 13 NW 1023,9 - -
21.03.2019 00:00:00 - - - - - - - -
20.03.2019 23:00:00 13,0 9,0 26 14 NW - 10 -
20.03.2019 22:00:00 13,0 8,6 28 15 NW 1024,0 10 0,0
20.03.2019 21:00:00 13,0 9,0 28 15 NW - 10 -
20.03.2019 20:00:00 13,0 10,0 24 13 NW - 10 -
20.03.2019 19:00:00 13,0 8,7 28 15 NW 1023,2 10 -
20.03.2019 18:00:00 13,0 9,0 26 14 NNW - 10 -
20.03.2019 17:00:00 14,0 9,0 28 15 NNW - 10 -
20.03.2019 16:00:00 13,9 8,8 29 16 NNW 1021,9 10 0,0
20.03.2019 15:00:00 15,0 9,0 28 15 NW - 10 -
20.03.2019 14:00:00 15,0 10,0 26 14 NNW - 10 -
20.03.2019 13:00:00 14,0 10,7 29 16 NW 1022,3 10 -
20.03.2019 12:00:00 13,0 11,0 28 15 NW - 10 -
20.03.2019 11:00:00 13,0 10,0 31 17 NW - 10 -
20.03.2019 10:00:00 14,5 10,2 29 16 NNW 1022,1 10 0,0
20.03.2019 09:00:00 14,0 11,0 24 13 NNW - 10 -
20.03.2019 08:00:00 13,0 10,0 24 13 NNW - 10 -
20.03.2019 07:00:00 12,9 10,0 18 10 NNW 1021,4 10 -
20.03.2019 06:00:00 13,0 10,0 18 10 NNW - 10 -
20.03.2019 05:00:00 13,0 10,0 22 12 NNW - 10 -
20.03.2019 04:00:00 12,8 10,3 22 12 NW 1020,5 10 0,0
20.03.2019 03:00:00 13,0 10,0 22 12 NW - 10 -
20.03.2019 02:00:00 13,0 10,0 24 13 WNW - 10 -
20.03.2019 01:00:00 13,3 11,7 13 7 NNW 1020,3 10 -
20.03.2019 00:00:00 13,0 12,0 11 6 NNE - 10 -
19.03.2019 23:00:00 13,0 12,0 11 6 N - 10 -
19.03.2019 22:00:00 12,8 11,5 9 5 N 1019,8 10 0,0
19.03.2019 21:00:00 13,0 11,0 4 2 - - 10 -
19.03.2019 20:00:00 13,0 11,0 8 4 E - 10 -
19.03.2019 19:00:00 13,3 11,7 5 3 E 1018,3 10 -
19.03.2019 18:00:00 14,0 12,0 9 5 E - 10 -
19.03.2019 17:00:00 14,0 12,0 13 7 E - 10 -
19.03.2019 16:00:00 14,7 12,0 15 8 ENE 1016,6 10 0,0
19.03.2019 15:00:00 15,0 12,0 13 7 E - 10 -
19.03.2019 14:00:00 15,0 12,0 13 7 E - 10 -
19.03.2019 13:00:00 14,9 11,7 11 6 E 1017,2 10 -
19.03.2019 12:00:00 15,0 11,0 11 6 E - 10 -
19.03.2019 11:00:00 14,0 12,0 11 6 E - 10 -
19.03.2019 10:00:00 14,9 11,7 11 6 ESE 1016,9 10 0,0
19.03.2019 09:00:00 15,0 11,0 11 6 SE - 10 -
19.03.2019 08:00:00 14,0 12,0 8 4 SE - 10 -
19.03.2019 07:00:00 13,5 11,5 9 5 SSE 1016,7 10 -
19.03.2019 06:00:00 13,0 11,0 8 4 SE - 10 -
19.03.2019 05:00:00 - - - - - - - -
19.03.2019 04:00:00 12,8 11,3 5 3 SE 1016,0 10 0,0
19.03.2019 03:00:00 13,0 11,0 8 4 SSE - 10 -
19.03.2019 02:00:00 13,0 11,0 9 5 SSE - 10 -
19.03.2019 01:00:00 12,4 10,9 9 5 SSE 1016,2 10 -
19.03.2019 00:00:00 13,0 11,0 13 7 SSE - 10 -
18.03.2019 23:00:00 13,0 11,0 9 5 SE - 10 -
18.03.2019 22:00:00 13,2 10,9 11 6 SSE 1016,1 10 0,0
18.03.2019 21:00:00 14,0 11,0 15 8 SSE - 10 -
18.03.2019 20:00:00 14,0 11,0 13 7 S - 10 -
18.03.2019 19:00:00 14,4 10,3 15 8 S 1015,2 10 -
18.03.2019 18:00:00 15,0 11,0 21 11 S - 10 -
18.03.2019 17:00:00 16,0 10,0 29 16 S - 10 -
18.03.2019 16:00:00 17,2 10,6 29 16 SSW 1013,7 10 0,0
18.03.2019 15:00:00 18,0 10,0 26 14 S - 10 -
18.03.2019 14:00:00 18,0 11,0 26 14 S - 10 -
18.03.2019 13:00:00 17,5 10,7 26 14 S 1014,6 10 -
18.03.2019 12:00:00 17,0 10,0 29 16 SSW - 10 -
18.03.2019 11:00:00 17,0 11,0 26 14 S - 10 -
18.03.2019 10:00:00 16,1 11,0 22 12 S 1015,0 10 0,0
18.03.2019 09:00:00 15,0 11,0 24 13 SSE - 10 -
18.03.2019 08:00:00 14,0 10,0 18 10 SSE - 10 -
18.03.2019 07:00:00 11,9 9,6 18 10 SSE 1014,6 10 -
18.03.2019 06:00:00 11,0 9,0 18 10 SSE - 10 -
18.03.2019 05:00:00 - - - - - - - -
18.03.2019 04:00:00 12,0 9,6 21 11 SSE 1014,2 10 0,0
18.03.2019 03:00:00 12,0 9,0 15 8 SSE - 10 -
18.03.2019 02:00:00 12,0 9,0 15 8 SSE - 10 -
18.03.2019 01:00:00 13,0 9,3 15 8 SSE 1015,2 10 -
18.03.2019 00:00:00 13,0 9,0 24 13 S - 10 -
17.03.2019 23:00:00 13,0 9,0 18 10 S - 10 -
17.03.2019 22:00:00 12,8 9,3 16 9 S 1016,1 10 0,0
17.03.2019 21:00:00 13,0 9,0 16 9 S - 10 -
17.03.2019 20:00:00 13,0 10,0 11 6 SSE - 10 -
17.03.2019 19:00:00 13,8 10,2 21 11 S 1016,2 10 -
17.03.2019 18:00:00 16,0 11,0 18 10 S - 10 -
17.03.2019 17:00:00 17,0 10,0 18 10 S - 10 -
17.03.2019 16:00:00 18,0 11,2 18 10 S 1016,2 10 0,0
17.03.2019 15:00:00 18,0 12,0 28 15 SSW - 10 -
17.03.2019 14:00:00 19,0 12,0 24 13 S - 10 -
17.03.2019 13:00:00 18,3 11,7 22 12 S 1017,4 10 -
17.03.2019 12:00:00 18,0 11,0 22 12 S - 10 -
17.03.2019 11:00:00 17,0 11,0 21 11 S - 10 -
17.03.2019 10:00:00 15,9 11,2 16 9 S 1018,7 10 0,0

tt = temperature
td = dewpoint
ff = wind speed
dd = wind direction
ppp = reduced air pressure
vv = visibility
rr = precipitation

Next stations